Weather reports worldwide

Advertisment
Fair Isle, United Kingdom (3008): temperature & dewpoint: 14.09.2018 18:00:00 - 20.09.2018 18:00:00 (BST)Fair Isle, United Kingdom (3008): temperature -20cm & temperature -100cm: 14.09.2018 18:00:00 - 20.09.2018 18:00:00 (BST)Fair Isle, United Kingdom (3008): wind speed & gusts: 14.09.2018 18:00:00 - 20.09.2018 18:00:00 (BST)Fair Isle, United Kingdom (3008): wind direction: 14.09.2018 18:00:00 - 20.09.2018 18:00:00 (BST)Fair Isle, United Kingdom (3008): reduced air pressure: 14.09.2018 18:00:00 - 20.09.2018 18:00:00 (BST)Fair Isle, United Kingdom (3008): visibility: 14.09.2018 18:00:00 - 20.09.2018 18:00:00 (BST)Fair Isle, United Kingdom (3008): precipitation: 14.09.2018 18:00:00 - 20.09.2018 18:00:00 (BST)
Date & Time tt [°C] td [°C] tt -20cm [°C] tt -100cm [°C] ff [km/h] ff [kn] fx [km/h] fx [kn] dd ppp [hPa] vv [km] rr [mm]
20.09.2018 18:00:00 11,0 8,9 - - 18 10 - - W 996,6 13 0,0
20.09.2018 17:00:00 11,6 9,4 - - 28 15 - - WSW 996,7 12 0,0
20.09.2018 16:00:00 11,1 9,2 - - 29 16 52 28 WSW 995,6 13 0,2
20.09.2018 15:00:00 12,2 8,6 - - 42 23 68 37 WSW 994,7 14 0,0
20.09.2018 14:00:00 11,8 9,8 - - 50 27 89 48 WSW 993,3 14 0,4
20.09.2018 13:00:00 10,8 9,9 - - 54 29 85 46 SSW 991,6 3,2 0,4
20.09.2018 12:00:00 10,7 7,8 - - 61 33 85 46 SW 991,4 14 0,0
20.09.2018 11:00:00 10,8 5,9 - - 65 35 89 48 SW 991,1 13 0,0
20.09.2018 10:00:00 11,7 5,7 12,4 12,0 61 33 83 45 SW 990,8 14 0,0
20.09.2018 09:00:00 11,0 5,9 - - 63 34 83 45 SSW 990,6 13 0,0
20.09.2018 08:00:00 10,7 6,4 - - 59 32 80 43 SW 990,6 12 0,0
20.09.2018 07:00:00 10,5 6,8 - - 57 31 83 45 SW - 12 0,0
20.09.2018 06:00:00 10,7 6,9 - - 57 31 81 44 SW - - 0,0
20.09.2018 05:00:00 10,5 7,0 - - 50 27 78 42 SW - - 0,0
20.09.2018 04:00:00 10,5 6,8 - - 55 30 78 42 SW - - 0,0
20.09.2018 03:00:00 10,7 6,9 - - 54 29 78 42 SSW - - 0,0
20.09.2018 02:00:00 10,8 6,9 - - 52 28 74 40 SW 989,6 13 0,0
20.09.2018 01:00:00 10,9 7,3 - - 54 29 72 39 SW 989,2 13 0,0
20.09.2018 00:00:00 11,1 7,8 - - 59 32 96 52 SW 988,8 13 0,0
19.09.2018 23:00:00 11,4 7,5 - - 72 39 106 57 SW 987,3 10 0,0
19.09.2018 22:00:00 11,3 7,9 - - 72 39 98 53 SW 985,9 12 0,8
19.09.2018 21:00:00 10,2 9,4 - - 55 30 81 44 WSW 984,7 7 1,2
19.09.2018 20:00:00 10,4 9,0 - - 61 33 102 55 WSW 982,8 8 0,2
19.09.2018 19:00:00 10,3 9,6 - - 61 33 85 46 SW 978,7 8 0,2
19.09.2018 18:00:00 10,9 9,4 - - 42 23 68 37 WSW 977,4 15 0,0
19.09.2018 17:00:00 11,8 9,5 - - 48 26 98 53 SW 975,5 11 0,0
19.09.2018 16:00:00 11,8 9,7 - - 67 36 102 55 S 974,0 15 3,0
19.09.2018 15:00:00 12,4 12,1 - - 59 32 87 47 SE 976,6 7 5,0
19.09.2018 14:00:00 9,3 8,6 - - 42 23 61 33 E 982,5 4,9 1,4
19.09.2018 13:00:00 9,4 8,4 - - 31 17 83 45 SE 987,5 15 3,4
19.09.2018 12:00:00 11,7 7,6 - - 55 30 80 43 SSE 989,6 11 0,0
19.09.2018 11:00:00 11,8 8,8 - - 41 22 57 31 SSE 991,6 14 0,0
19.09.2018 10:00:00 11,7 8,9 12,7 12,0 37 20 54 29 S 992,2 15 0,0
19.09.2018 09:00:00 11,3 8,6 - - 41 22 59 32 S 993,5 18 0,0
19.09.2018 08:00:00 11,2 7,9 - - 39 21 57 31 SSW 993,6 26 0,0
19.09.2018 07:00:00 11,0 8,1 - - 41 22 61 33 SW - 15 0,0
19.09.2018 06:00:00 9,8 7,0 - - 37 20 76 41 WSW 992,0 18 0,0
19.09.2018 05:00:00 11,1 8,3 - - 52 28 78 42 S 991,1 15 0,0
19.09.2018 04:00:00 12,4 11,0 - - 37 20 50 27 S 991,8 20 0,0
19.09.2018 03:00:00 12,4 11,3 - - 34 18 46 25 S 992,2 20 0,0
19.09.2018 02:00:00 12,4 11,8 - - 29 16 - - S 992,5 25 0,0
19.09.2018 01:00:00 11,9 11,9 - - 26 14 - - S 992,7 24 0,0
19.09.2018 00:00:00 11,9 11,9 - - 24 13 - - SSW 992,9 20 0,0
18.09.2018 23:00:00 12,0 12,0 - - 22 12 - - SW 992,7 24 0,0
18.09.2018 22:00:00 11,8 11,8 - - 24 13 - - SW 992,7 11 0,0
18.09.2018 21:00:00 11,8 11,8 - - 22 12 - - SW 992,2 5 0,0
18.09.2018 20:00:00 11,5 11,5 - - 15 8 - - SW 991,7 22 0,0
18.09.2018 19:00:00 11,6 11,6 - - 9 5 - - W 990,9 8 0,0
18.09.2018 18:00:00 12,0 12,0 - - 11 6 - - WNW 990,5 13 0,6
18.09.2018 17:00:00 12,1 12,1 - - 18 10 - - W 991,1 0,2 1,2
18.09.2018 16:00:00 12,5 12,5 - - 4 2 - - ESE 990,3 5 0,0
18.09.2018 15:00:00 12,5 12,5 - - 9 5 - - NE 990,8 6 0,2
18.09.2018 14:00:00 12,6 12,6 - - 11 6 - - NE 991,1 11 0,0
18.09.2018 13:00:00 12,6 12,6 - - 9 5 - - NW 991,7 6 0,2
18.09.2018 12:00:00 12,4 12,4 - - 9 5 - - NNW 992,6 0,5 0,2
18.09.2018 11:00:00 12,4 12,4 - - 2 1 - - NW 993,1 19 0,4
18.09.2018 10:00:00 12,3 12,3 12,5 12,0 5 3 - - WSW 993,4 4,8 0,8
18.09.2018 09:00:00 12,4 12,4 - - 11 6 - - W 993,2 6 1,8
18.09.2018 08:00:00 12,7 12,7 - - 13 7 - - SW 993,7 0,3 0,0
18.09.2018 07:00:00 13,2 12,9 - - 16 9 - - SW - 10 0,0
18.09.2018 06:00:00 13,6 13,1 - - 26 14 - - SSW - - 0,0
18.09.2018 05:00:00 13,9 13,2 - - 34 18 48 26 SSW - - 0,0
18.09.2018 04:00:00 13,7 13,2 - - 35 19 48 26 S 992,9 8 0,0
18.09.2018 03:00:00 13,7 13,4 - - 35 19 52 28 S 993,1 8 0,0
18.09.2018 02:00:00 13,6 13,5 - - 41 22 57 31 S 993,2 6 0,2
18.09.2018 01:00:00 13,5 13,5 - - 42 23 61 33 S 993,5 6 0,8
18.09.2018 00:00:00 13,2 13,2 - - 41 22 57 31 SSE 994,1 5 0,6
17.09.2018 23:00:00 12,4 12,4 - - 41 22 52 28 SSE 995,2 3,4 0,2
17.09.2018 22:00:00 11,9 11,6 - - 28 15 - - SE 997,0 10 0,2
17.09.2018 21:00:00 11,6 11,5 - - 24 13 - - SE 998,8 7 0,4
17.09.2018 20:00:00 11,6 11,5 - - 24 13 - - SSE 999,9 9 0,4
17.09.2018 19:00:00 11,7 11,7 - - 22 12 - - SSE 1000,6 10 1,0
17.09.2018 18:00:00 11,7 11,7 - - 28 15 - - SSE 1001,6 7 0,4
17.09.2018 17:00:00 11,7 11,7 - - 21 11 - - SSE 1002,4 8 0,2
17.09.2018 16:00:00 11,9 11,8 - - 24 13 - - SSE 1003,6 11 0,2
17.09.2018 15:00:00 11,5 11,3 - - 21 11 - - SSE 1004,3 10 1,0
17.09.2018 14:00:00 11,9 11,2 - - 26 14 - - S 1005,4 10 0,0
17.09.2018 13:00:00 12,6 11,0 - - 21 11 - - S 1005,8 23 0,0
17.09.2018 12:00:00 12,7 10,4 - - 18 10 - - SSW 1006,3 20 0,0
17.09.2018 11:00:00 12,4 9,6 - - 22 12 - - WSW 1006,8 30 0,0
17.09.2018 10:00:00 12,1 9,4 12,5 12,2 28 15 - - SW 1006,5 22 0,0
17.09.2018 09:00:00 11,6 9,5 - - 26 14 - - SW 1006,4 25 0,0
17.09.2018 08:00:00 11,3 9,4 - - 28 15 - - SW 1006,3 22 0,0
17.09.2018 07:00:00 10,9 9,1 - - 31 17 46 25 SW - - 0,0
17.09.2018 06:00:00 11,2 10,0 - - 31 17 48 26 SW - - 0,0
17.09.2018 05:00:00 11,0 9,2 - - 37 20 50 27 SW - - 0,0
17.09.2018 04:00:00 11,6 8,9 - - 34 18 50 27 SSW 1005,8 18 0,0
17.09.2018 03:00:00 11,5 7,5 - - 35 19 54 29 SW 1005,9 18 0,0
17.09.2018 02:00:00 11,3 7,5 - - 35 19 50 27 SW 1005,9 21 0,0
17.09.2018 01:00:00 10,7 6,9 - - 37 20 52 28 SW 1006,0 26 0,0
17.09.2018 00:00:00 10,5 7,3 - - 37 20 59 32 SW 1005,7 17 0,0
16.09.2018 23:00:00 11,1 7,7 - - 41 22 59 32 SW 1005,6 18 0,0
16.09.2018 22:00:00 10,8 7,2 - - 44 24 61 33 WSW 1005,4 30 0,0
16.09.2018 21:00:00 11,2 7,1 - - 39 21 59 32 WSW 1005,0 17 0,0
16.09.2018 20:00:00 11,3 6,5 - - 39 21 57 31 WSW 1004,3 16 0,0
16.09.2018 19:00:00 11,2 7,2 - - 44 24 63 34 WSW 1003,4 14 0,0
16.09.2018 18:00:00 11,4 6,8 - - 46 25 67 36 WSW 1002,7 13 0,0
16.09.2018 17:00:00 11,3 6,8 - - 52 28 78 42 W 1001,9 12 0,0
16.09.2018 16:00:00 11,4 7,9 - - 54 29 74 40 WSW 1001,0 11 0,0
16.09.2018 15:00:00 12,3 9,3 - - 57 31 87 47 WSW 999,5 14 0,0
16.09.2018 14:00:00 12,6 10,3 - - 57 31 89 48 WSW 998,2 8 0,0
16.09.2018 13:00:00 13,0 10,4 - - 59 32 91 49 WSW 996,4 9 0,0
16.09.2018 12:00:00 13,1 10,8 - - 72 39 93 50 SW 995,4 10 0,0
16.09.2018 11:00:00 13,6 11,7 - - 48 26 68 37 SW 995,4 10 0,2
16.09.2018 10:00:00 12,7 12,3 12,5 12,2 39 21 61 33 S 996,0 3,5 0,0
16.09.2018 09:00:00 12,3 11,7 - - 41 22 65 35 SSE 996,9 6 0,0
16.09.2018 08:00:00 11,8 11,5 - - 52 28 68 37 SSE 998,1 9 0,2
16.09.2018 07:00:00 11,7 11,3 - - 50 27 68 37 SSE - 8 0,0
16.09.2018 06:00:00 11,4 11,0 - - 42 23 63 34 SE - - 0,0
16.09.2018 05:00:00 11,4 10,9 - - 48 26 63 34 SSE - - 0,4
16.09.2018 04:00:00 11,5 11,2 - - 42 23 55 30 SSE - - 0,4
16.09.2018 03:00:00 11,5 11,1 - - 35 19 50 27 SSE - - 0,0
16.09.2018 02:00:00 11,5 10,5 - - 31 17 - - SSE 1008,5 16 0,0
16.09.2018 01:00:00 11,6 10,9 - - 35 19 48 26 SSE 1010,0 11 0,0
16.09.2018 00:00:00 11,5 10,0 - - 34 18 - - SSE 1011,1 18 0,0
15.09.2018 23:00:00 11,6 9,3 - - 24 13 - - SSE 1012,4 28 0,0
15.09.2018 22:00:00 11,2 8,9 - - 26 14 - - SSE 1013,4 35 0,0
15.09.2018 21:00:00 11,2 8,5 - - 29 16 - - SSE 1014,1 45 0,0
15.09.2018 20:00:00 10,7 8,3 - - 15 8 - - SSE 1014,5 45 0,0
15.09.2018 19:00:00 10,7 6,7 - - 13 7 - - SSW 1014,7 30 0,0
15.09.2018 18:00:00 11,5 6,6 - - 15 8 - - WSW 1014,5 40 0,0
15.09.2018 17:00:00 12,1 7,7 - - 18 10 - - WSW 1014,8 21 0,0
15.09.2018 16:00:00 12,7 8,0 - - 24 13 - - WSW 1014,9 30 0,0
15.09.2018 15:00:00 12,2 7,1 - - 29 16 - - WSW 1014,9 20 0,0
15.09.2018 14:00:00 12,5 7,8 - - 29 16 - - WSW 1014,5 15 0,0
15.09.2018 13:00:00 11,0 7,1 - - 26 14 46 25 W 1014,2 21 0,0
15.09.2018 12:00:00 11,8 7,1 - - 29 16 - - W 1013,7 26 0,2
15.09.2018 11:00:00 12,0 7,1 - - 28 15 - - WSW 1013,3 35 0,0
15.09.2018 10:00:00 11,7 7,2 12,5 12,2 28 15 - - WSW 1012,9 35 0,0
15.09.2018 09:00:00 10,5 7,0 - - 29 16 48 26 WSW 1012,5 23 0,0
15.09.2018 08:00:00 10,1 6,9 - - 28 15 46 25 WSW 1012,2 25 0,0
15.09.2018 07:00:00 10,4 6,0 - - 31 17 48 26 W - 20 0,0
15.09.2018 06:00:00 10,5 5,7 - - 34 18 46 25 W - - 0,0
15.09.2018 05:00:00 10,3 7,3 - - 29 16 48 26 W 1010,9 18 0,0
15.09.2018 04:00:00 10,8 7,5 - - 29 16 46 25 W 1010,5 23 0,0
15.09.2018 03:00:00 10,6 5,9 - - 28 15 46 25 W 1010,5 30 0,0
15.09.2018 02:00:00 10,6 7,3 - - 28 15 - - W 1010,2 18 0,0
15.09.2018 01:00:00 9,9 6,7 - - 26 14 46 25 W 1010,0 18 0,2
15.09.2018 00:00:00 10,3 6,9 - - 26 14 - - W 1009,7 25 0,4
14.09.2018 23:00:00 10,1 7,0 - - 22 12 - - W 1009,3 30 0,0
14.09.2018 22:00:00 10,2 6,3 - - 22 12 - - W 1009,2 7 0,0
14.09.2018 21:00:00 10,4 6,2 - - 22 12 - - W 1008,9 40 0,0
14.09.2018 20:00:00 10,3 6,0 - - 26 14 - - W 1008,1 40 0,0
14.09.2018 19:00:00 10,3 6,6 - - 29 16 - - W 1007,3 40 0,0
14.09.2018 18:00:00 10,4 7,0 - - 29 16 - - W 1006,5 27 0,0

tt = temperature
td = dewpoint
tt -20cm = temperature -20cm
tt -100cm = temperature -100cm
ff = wind speed
fx = gusts
dd = wind direction
ppp = reduced air pressure
vv = visibility
rr = precipitation

Next stations